Location: *
(44.1392°N, 4.8079°E)
Time: 08:47:14
(UTC+00:00)

Cosmos 1092 Rocket - Pass Details

Date: 21 June 2021
Orbit: 955 x 994 km, 82.9° (Epoch: 02 August)

Event Time Altitude Azimuth Distance (km) Brightness Sun altitude
Exits shadow 01:36:13 28° 203° (SSW) 1,706 4.7 -17.6°
Maximum altitude 01:39:34 69° 280° (W) 1,023 4.0 -17.3°
Drops below altitude 10° 01:45:43 10° 3° (N) 2,699 7.3 -16.8°
Sets 01:48:15 0° 6° (N) 3,652 8.3 -16.6°
